Flag for Germany Weather past 2 weeks in Oelde, North Rhine-Westphalia, Germany

Now
57 °F

Passing clouds.


Feels Like: 56 °F
Forecast: 46 / 64 °F
Wind: 7 mph from West

Location: Paderborn / Lippstadt

Current Time: Aug 23, 2014 at 6:00:41 PM

Latest Report: Aug 23, 2014 at 5:20 PM


Visibility: N/A

Pressure: 29.92 "Hg

Humidity: 67%

Dew point: 46 °F

Location of OeldeLocation

Historic Weather in Oelde — Graph

°F

Oelde temperature yesterday

Maximum temperature yesterday: 64 °F (at 2:50 PM)
Minimum temperature yesterday: 50 °F (at 5:50 AM)
Average temperature yesterday: 58 °F

Past Weeks' High & Low Weather Summary

 TemperatureHumidityPressure
High77 °F (Aug 8, 4:20 PM)100% (Aug 12, 8:50 PM)30.07 "Hg (Aug 12, 8:50 PM)
Low46 °F (Aug 19, 11:50 PM)38% (Aug 11, 5:20 PM)29.62 "Hg (Aug 10, 8:20 PM)
Average59 °F71%29.87 "Hg
* Reported Aug 8 4:20 PM — Aug 23 4:50 PM, Oelde, Weather by CustomWeather, © 2014

Note: Actual official high and low records may vary slightly from our data, if they occured in-between our weather recording intervals... More about our weather records

Advertising

Oelde weather history for previous 24 hours

 ConditionsComfort  
Time TempWeatherWind HumidityBarometerVisibility
4:50 PM
Aug 23
55 °FPassing clouds.5 mph67%29.92 "HgN/A
4:20 PM54 °FScattered clouds.6 mph77%29.92 "HgN/A
3:50 PM54 °FScattered clouds.15 mph67%29.92 "HgN/A
3:20 PM59 °FScattered clouds.5 mph68%29.92 "HgN/A
2:50 PM57 °FScattered clouds.5 mph72%29.92 "HgN/A
2:20 PM55 °FScattered clouds.3 mph82%29.92 "HgN/A
1:50 PM54 °FSprinkles. Scattered clouds.2 mph88%29.92 "HgN/A
1:20 PM55 °FRain showers. Scattered clouds.7 mph77%29.92 "HgN/A
12:50 PM55 °FScattered showers. Scattered clouds.3 mph77%29.92 "HgN/A
12:20 PM55 °FRain showers. Broken clouds.6 mph77%29.92 "Hg4 mi
11:50 AM55 °FScattered clouds.3 mph82%29.92 "Hg6 mi
11:20 AM57 °FScattered clouds.3 mph72%29.92 "Hg6 mi
10:50 AM55 °FBroken clouds.3 mph82%29.92 "Hg6 mi
10:20 AM55 °FBroken clouds.3 mph77%29.92 "Hg6 mi
9:50 AM54 °FScattered clouds.7 mph82%29.92 "HgN/A
9:20 AM54 °FScattered clouds.5 mph82%29.92 "HgN/A
8:50 AM54 °FScattered clouds.5 mph82%29.92 "HgN/A
8:20 AM52 °FScattered clouds.6 mph94%29.92 "HgN/A
7:50 AM50 °FScattered clouds.5 mph100%29.92 "HgN/A
7:20 AM48 °FPassing clouds.7 mph100%29.92 "HgN/A
6:50 AM50 °FPassing clouds.6 mph94%29.89 "HgN/A
6:20 AM50 °FPassing clouds.5 mph94%29.89 "HgN/A
5:50 AM52 °FPassing clouds.6 mph88%29.89 "HgN/A
5:20 AM50 °FPassing clouds.7 mph88%29.89 "HgN/A
4:50 AM52 °FPassing clouds.8 mph88%29.89 "HgN/A
4:20 AM52 °FPassing clouds.7 mph88%29.89 "HgN/A
3:50 AM52 °FPassing clouds.9 mph88%29.89 "HgN/A
3:20 AM52 °FPassing clouds.10 mph88%29.89 "HgN/A
11:20 PM
Aug 22
52 °FPassing clouds.12 mph88%29.89 "HgN/A
10:50 PM52 °FPassing clouds.8 mph94%29.89 "HgN/A
10:20 PM54 °FClear.7 mph88%29.89 "Hg10 mi
9:50 PM54 °FLight rain. Passing clouds.7 mph88%29.89 "HgN/A
9:20 PM54 °FBroken clouds.6 mph88%29.89 "HgN/A
8:50 PM54 °FBroken clouds.6 mph88%29.89 "HgN/A
8:20 PM55 °FSprinkles. Scattered clouds.8 mph82%29.89 "Hg4 mi
7:50 PM55 °FBroken clouds.7 mph82%29.86 "Hg4 mi
7:20 PM59 °FRain showers. Broken clouds.13 mph63%29.86 "Hg4 mi
6:50 PM63 °FBroken clouds.12 mph52%29.86 "HgN/A
6:20 PM63 °FScattered clouds.13 mph56%29.86 "HgN/A
Weather by CustomWeather, © 2014

See weather overviewHow to use our weather pages